Time,TemperatureF,DewpointF,PressureIn,WindDirection,WindDirectionDegrees,WindSpeedMPH,WindSpeedGustMPH,Humidity,HourlyPrecipIn,Conditions,Clouds,dailyrainin,SoftwareType,DateUTC
2013-09-24 00:02:00,81.2,79.3,29.83,ESE,108,4.0,5.0,94,0.00,,,0.00,Wunderground v.1.15,2013-09-24 05:02:00,
2013-09-24 00:08:00,81.4,79.8,29.83,ESE,117,4.0,5.0,95,0.00,,,0.00,Wunderground v.1.15,2013-09-24 05:08:00,
2013-09-24 00:14:00,81.3,79.7,29.83,East,97,3.0,3.0,95,0.00,,,0.00,Wunderground v.1.15,2013-09-24 05:14:00,
2013-09-24 00:19:00,81.1,79.5,29.83,ESE,107,2.0,3.0,95,0.00,,,0.00,Wunderground v.1.15,2013-09-24 05:19:00,
2013-09-24 00:25:00,80.9,79.7,29.83,East,82,0.0,4.0,96,0.00,,,0.00,Wunderground v.1.15,2013-09-24 05:25:00,
2013-09-24 00:31:00,80.8,79.6,29.83,ESE,110,3.0,3.0,96,0.00,,,0.00,Wunderground v.1.15,2013-09-24 05:31:00,
2013-09-24 00:37:00,80.7,79.5,29.83,ESE,120,1.0,4.0,96,0.00,,,0.00,Wunderground v.1.15,2013-09-24 05:37:00,
2013-09-24 00:43:00,80.7,79.5,29.83,ESE,102,1.0,3.0,96,0.00,,,0.00,Wunderground v.1.15,2013-09-24 05:43:00,
2013-09-24 00:49:00,80.8,79.6,29.83,ESE,102,1.0,3.0,96,0.00,,,0.00,Wunderground v.1.15,2013-09-24 05:49:00,
2013-09-24 00:55:00,80.9,79.7,29.83,East,96,2.0,3.0,96,0.00,,,0.00,Wunderground v.1.15,2013-09-24 05:55:00,
2013-09-24 01:00:00,80.9,79.7,29.83,East,100,2.0,2.0,96,0.00,,,0.00,Wunderground v.1.15,2013-09-24 06:00:00,
2013-09-24 01:06:00,80.9,79.7,29.83,East,100,1.0,2.0,96,0.00,,,0.00,Wunderground v.1.15,2013-09-24 06:06:00,
2013-09-24 01:12:00,80.9,79.7,29.83,ESE,111,1.0,2.0,96,0.00,,,0.00,Wunderground v.1.15,2013-09-24 06:12:00,
2013-09-24 01:18:00,80.9,79.7,29.83,East,91,2.0,2.0,96,0.00,,,0.00,Wunderground v.1.15,2013-09-24 06:18:00,
2013-09-24 01:24:00,80.9,79.7,29.83,ESE,113,2.0,3.0,96,0.00,,,0.00,Wunderground v.1.15,2013-09-24 06:24:00,
2013-09-24 01:30:00,80.9,79.7,29.83,East,100,2.0,2.0,96,0.00,,,0.00,Wunderground v.1.15,2013-09-24 06:30:00,
2013-09-24 01:36:00,80.8,79.2,29.83,East,100,1.0,2.0,95,0.00,,,0.00,Wunderground v.1.15,2013-09-24 06:36:00,
2013-09-24 01:41:00,80.7,79.1,29.83,ENE,77,0.0,2.0,95,0.00,,,0.00,Wunderground v.1.15,2013-09-24 06:41:00,
2013-09-24 01:47:00,80.6,79.0,29.83,ESE,116,0.0,2.0,95,0.00,,,0.00,Wunderground v.1.15,2013-09-24 06:47:00,
2013-09-24 01:53:00,80.6,79.4,29.84,SE,134,1.0,1.0,96,0.00,,,0.00,Wunderground v.1.15,2013-09-24 06:53:00,
2013-09-24 01:59:00,80.5,79.3,29.83,East,93,1.0,1.0,96,0.00,,,0.00,Wunderground v.1.15,2013-09-24 06:59:00,
2013-09-24 02:04:00,80.3,79.1,29.84,East,79,0.0,2.0,96,0.00,,,0.00,Wunderground v.1.15,2013-09-24 07:04:00,
2013-09-24 02:09:00,80.4,79.5,29.83,ESE,104,5.0,6.0,97,0.00,,,0.00,Wunderground v.1.15,2013-09-24 07:09:00,
2013-09-24 02:14:00,80.4,79.5,29.83,East,94,3.0,4.0,97,0.00,,,0.00,Wunderground v.1.15,2013-09-24 07:14:00,
2013-09-24 02:19:00,80.5,79.3,29.83,East,89,2.0,8.0,96,0.00,,,0.00,Wunderground v.1.15,2013-09-24 07:19:00,
2013-09-24 02:24:00,80.4,79.2,29.84,ENE,75,2.0,7.0,96,0.00,,,0.00,Wunderground v.1.15,2013-09-24 07:24:00,
2013-09-24 02:29:00,80.4,79.2,29.84,ESE,113,1.0,7.0,96,0.00,,,0.00,Wunderground v.1.15,2013-09-24 07:29:00,
2013-09-24 02:34:00,80.3,79.1,29.83,East,88,1.0,3.0,96,0.00,,,0.00,Wunderground v.1.15,2013-09-24 07:34:00,
2013-09-24 02:39:00,80.2,79.0,29.83,East,96,1.0,3.0,96,0.00,,,0.00,Wunderground v.1.15,2013-09-24 07:39:00,
2013-09-24 02:44:00,80.1,78.9,29.83,East,84,2.0,5.0,96,0.00,,,0.00,Wunderground v.1.15,2013-09-24 07:44:00,
2013-09-24 02:49:00,79.9,78.7,29.83,East,89,1.0,5.0,96,0.00,,,0.00,Wunderground v.1.15,2013-09-24 07:49:00,
2013-09-24 02:54:00,79.9,78.7,29.83,ENE,72,2.0,7.0,96,0.00,,,0.00,Wunderground v.1.15,2013-09-24 07:54:00,
2013-09-24 02:59:00,79.9,78.7,29.83,ENE,67,2.0,7.0,96,0.00,,,0.00,Wunderground v.1.15,2013-09-24 07:59:00,
2013-09-24 03:04:00,79.8,78.6,29.83,ENE,72,2.0,7.0,96,0.00,,,0.00,Wunderground v.1.15,2013-09-24 08:04:00,
2013-09-24 03:09:00,79.7,78.5,29.83,East,85,1.0,7.0,96,0.00,,,0.00,Wunderground v.1.15,2013-09-24 08:09:00,
2013-09-24 03:14:00,79.6,78.4,29.83,North,360,2.0,6.0,96,0.00,,,0.00,Wunderground v.1.15,2013-09-24 08:14:00,
2013-09-24 03:19:00,79.5,78.3,29.83,NNE,19,2.0,6.0,96,0.00,,,0.00,Wunderground v.1.15,2013-09-24 08:19:00,
2013-09-24 03:25:00,79.1,77.9,29.83,NE,47,0.0,3.0,96,0.00,,,0.00,Wunderground v.1.15,2013-09-24 08:25:00,
2013-09-24 03:30:00,78.8,77.6,29.83,East,88,1.0,1.0,96,0.00,,,0.00,Wunderground v.1.15,2013-09-24 08:30:00,
2013-09-24 03:35:00,78.6,77.4,29.83,East,81,0.0,4.0,96,0.00,,,0.00,Wunderground v.1.15,2013-09-24 08:35:00,
2013-09-24 03:40:00,78.5,77.3,29.82,East,83,2.0,2.0,96,0.00,,,0.00,Wunderground v.1.15,2013-09-24 08:40:00,
2013-09-24 03:45:00,78.4,77.5,29.82,ESE,118,1.0,4.0,97,0.00,,,0.00,Wunderground v.1.15,2013-09-24 08:45:00,
2013-09-24 03:50:00,78.3,77.4,29.82,NNE,16,2.0,2.0,97,0.00,,,0.00,Wunderground v.1.15,2013-09-24 08:50:00,
2013-09-24 03:55:00,78.2,77.3,29.82,East,93,3.0,4.0,97,0.00,,,0.00,Wunderground v.1.15,2013-09-24 08:55:00,
2013-09-24 04:00:00,78.1,77.2,29.82,ESE,114,2.0,3.0,97,0.00,,,0.00,Wunderground v.1.15,2013-09-24 09:00:00,
2013-09-24 04:05:00,78.1,77.2,29.82,ENE,70,3.0,7.0,97,0.00,,,0.00,Wunderground v.1.15,2013-09-24 09:05:00,
2013-09-24 04:10:00,78.3,77.4,29.82,ENE,74,7.0,7.0,97,0.00,,,0.00,Wunderground v.1.15,2013-09-24 09:10:00,
2013-09-24 04:15:00,78.4,76.8,29.83,East,96,8.0,12.0,95,0.00,,,0.00,Wunderground v.1.15,2013-09-24 09:15:00,
2013-09-24 04:20:00,78.6,76.1,29.82,ESE,117,5.0,8.0,92,0.00,,,0.00,Wunderground v.1.15,2013-09-24 09:20:00,
2013-09-24 04:25:00,78.9,76.4,29.83,ESE,102,4.0,11.0,92,0.00,,,0.00,Wunderground v.1.15,2013-09-24 09:25:00,
2013-09-24 04:30:00,78.9,76.7,29.83,ESE,113,7.0,10.0,93,0.00,,,0.00,Wunderground v.1.15,2013-09-24 09:30:00,
2013-09-24 04:35:00,78.8,76.9,29.83,East,101,5.0,10.0,94,0.00,,,0.00,Wunderground v.1.15,2013-09-24 09:35:00,
2013-09-24 04:40:00,78.9,77.3,29.83,ESE,116,5.0,6.0,95,0.00,,,0.00,Wunderground v.1.15,2013-09-24 09:40:00,
2013-09-24 04:45:00,78.8,77.2,29.83,East,93,2.0,8.0,95,0.00,,,0.00,Wunderground v.1.15,2013-09-24 09:45:00,
2013-09-24 04:50:00,78.9,77.7,29.83,ENE,75,3.0,5.0,96,0.00,,,0.00,Wunderground v.1.15,2013-09-24 09:50:00,
2013-09-24 04:55:00,79.0,77.8,29.83,ENE,72,0.0,5.0,96,0.00,,,0.00,Wunderground v.1.15,2013-09-24 09:55:00,
2013-09-24 05:00:00,78.8,77.6,29.83,ENE,77,2.0,5.0,96,0.00,,,0.00,Wunderground v.1.15,2013-09-24 10:00:00,
2013-09-24 05:05:00,78.6,77.4,29.83,East,79,3.0,5.0,96,0.00,,,0.00,Wunderground v.1.15,2013-09-24 10:05:00,
2013-09-24 05:10:00,78.4,77.2,29.83,ENE,77,1.0,3.0,96,0.00,,,0.00,Wunderground v.1.15,2013-09-24 10:10:00,
2013-09-24 05:15:00,78.2,77.0,29.83,ENE,72,1.0,6.0,96,0.00,,,0.00,Wunderground v.1.15,2013-09-24 10:15:00,
2013-09-24 05:20:00,78.3,77.1,29.83,ENE,62,5.0,5.0,96,0.00,,,0.00,Wunderground v.1.15,2013-09-24 10:20:00,
2013-09-24 05:25:00,78.4,77.2,29.83,ESE,104,11.0,13.0,96,0.00,,,0.00,Wunderground v.1.15,2013-09-24 10:25:00,
2013-09-24 05:30:00,78.4,77.2,29.83,East,86,10.0,10.0,96,0.00,,,0.00,Wunderground v.1.15,2013-09-24 10:30:00,
2013-09-24 05:35:00,78.3,77.4,29.83,East,91,10.0,11.0,97,0.00,,,0.00,Wunderground v.1.15,2013-09-24 10:35:00,
2013-09-24 05:40:00,78.3,77.4,29.83,East,98,5.0,8.0,97,0.00,,,0.00,Wunderground v.1.15,2013-09-24 10:40:00,
2013-09-24 05:45:00,78.3,77.4,29.83,ESE,110,7.0,9.0,97,0.00,,,0.00,Wunderground v.1.15,2013-09-24 10:45:00,
2013-09-24 05:50:00,78.2,77.3,29.83,ENE,64,6.0,8.0,97,0.00,,,0.01,Wunderground v.1.15,2013-09-24 10:50:00,
2013-09-24 05:55:00,78.1,77.2,29.83,East,99,4.0,11.0,97,0.00,,,0.01,Wunderground v.1.15,2013-09-24 10:55:00,
2013-09-24 06:00:00,78.1,77.5,29.84,East,93,2.0,5.0,98,0.00,,,0.01,Wunderground v.1.15,2013-09-24 11:00:00,
2013-09-24 06:05:00,78.2,77.6,29.84,ENE,72,2.0,10.0,98,0.00,,,0.01,Wunderground v.1.15,2013-09-24 11:05:00,
2013-09-24 06:10:00,78.2,77.6,29.84,ENE,71,5.0,10.0,98,0.00,,,0.01,Wunderground v.1.15,2013-09-24 11:10:00,
2013-09-24 06:15:00,78.2,77.6,29.84,East,87,6.0,12.0,98,0.00,,,0.01,Wunderground v.1.15,2013-09-24 11:15:00,
2013-09-24 06:20:00,78.1,77.5,29.84,East,81,4.0,8.0,98,0.00,,,0.01,Wunderground v.1.15,2013-09-24 11:20:00,
2013-09-24 06:25:00,78.2,77.6,29.83,East,82,6.0,8.0,98,0.00,,,0.01,Wunderground v.1.15,2013-09-24 11:25:00,
2013-09-24 06:30:00,78.3,77.7,29.83,ESE,117,5.0,5.0,98,0.00,,,0.01,Wunderground v.1.15,2013-09-24 11:30:00,
2013-09-24 06:35:00,78.4,77.8,29.83,ESE,107,5.0,9.0,98,0.00,,,0.02,Wunderground v.1.15,2013-09-24 11:35:00,
2013-09-24 06:40:00,78.5,77.9,29.84,East,79,8.0,10.0,98,0.00,,,0.02,Wunderground v.1.15,2013-09-24 11:40:00,
2013-09-24 06:45:00,78.4,77.8,29.84,East,100,9.0,12.0,98,0.00,,,0.02,Wunderground v.1.15,2013-09-24 11:45:00,
2013-09-24 06:50:00,77.5,76.3,29.84,SE,125,5.0,8.0,96,0.00,,,0.02,Wunderground v.1.15,2013-09-24 11:50:00,
2013-09-24 06:55:00,77.4,76.5,29.84,ENE,76,4.0,9.0,97,0.00,,,0.02,Wunderground v.1.15,2013-09-24 11:55:00,
2013-09-24 07:00:00,77.2,76.0,29.84,East,92,5.0,7.0,96,0.00,,,0.02,Wunderground v.1.15,2013-09-24 12:00:00,
2013-09-24 07:05:00,77.3,76.1,29.84,East,87,9.0,10.0,96,0.00,,,0.02,Wunderground v.1.15,2013-09-24 12:05:00,
2013-09-24 07:10:00,77.4,76.2,29.84,East,99,6.0,12.0,96,0.00,,,0.02,Wunderground v.1.15,2013-09-24 12:10:00,
2013-09-24 07:15:00,77.2,76.3,29.84,NE,41,4.0,12.0,97,0.00,,,0.02,Wunderground v.1.15,2013-09-24 12:15:00,
2013-09-24 07:20:00,77.4,76.8,29.84,East,85,3.0,6.0,98,0.00,,,0.02,Wunderground v.1.15,2013-09-24 12:20:00,
2013-09-24 07:25:00,77.7,77.1,29.84,ESE,111,2.0,8.0,98,0.00,,,0.02,Wunderground v.1.15,2013-09-24 12:25:00,
2013-09-24 07:30:00,77.7,77.1,29.83,East,100,4.0,11.0,98,0.00,,,0.02,Wunderground v.1.15,2013-09-24 12:30:00,
2013-09-24 07:36:00,77.7,77.1,29.84,East,94,10.0,14.0,98,0.00,,,0.03,Wunderground v.1.15,2013-09-24 12:36:00,
2013-09-24 07:41:00,77.6,76.7,29.83,ENE,63,9.0,10.0,97,0.00,,,0.03,Wunderground v.1.15,2013-09-24 12:41:00,
2013-09-24 07:46:00,77.5,76.6,29.84,East,94,4.0,11.0,97,0.00,,,0.03,Wunderground v.1.15,2013-09-24 12:46:00,
2013-09-24 07:51:00,77.4,76.5,29.84,ESE,105,6.0,10.0,97,0.00,,,0.03,Wunderground v.1.15,2013-09-24 12:51:00,
2013-09-24 07:56:00,77.5,76.6,29.84,East,101,4.0,11.0,97,0.00,,,0.03,Wunderground v.1.15,2013-09-24 12:56:00,
2013-09-24 08:01:00,77.6,77.0,29.84,ENE,71,3.0,7.0,98,0.00,,,0.03,Wunderground v.1.15,2013-09-24 13:01:00,
2013-09-24 08:06:00,77.8,77.2,29.84,ENE,78,6.0,13.0,98,0.00,,,0.03,Wunderground v.1.15,2013-09-24 13:06:00,
2013-09-24 08:11:00,78.6,78.0,29.84,ENE,77,10.0,10.0,98,0.00,,,0.03,Wunderground v.1.15,2013-09-24 13:11:00,
2013-09-24 08:16:00,78.8,77.9,29.84,SE,129,6.0,14.0,97,0.00,,,0.03,Wunderground v.1.15,2013-09-24 13:16:00,
2013-09-24 08:21:00,78.8,77.9,29.84,ESE,108,10.0,12.0,97,0.00,,,0.03,Wunderground v.1.15,2013-09-24 13:21:00,
2013-09-24 08:26:00,79.0,78.1,29.84,East,90,8.0,12.0,97,0.00,,,0.03,Wunderground v.1.15,2013-09-24 13:26:00,
2013-09-24 08:31:00,79.1,77.9,29.84,SE,134,8.0,8.0,96,0.00,,,0.03,Wunderground v.1.15,2013-09-24 13:31:00,
2013-09-24 08:36:00,79.1,77.9,29.84,SE,142,4.0,11.0,96,0.00,,,0.03,Wunderground v.1.15,2013-09-24 13:36:00,
2013-09-24 08:41:00,79.2,78.0,29.84,SE,132,6.0,10.0,96,0.00,,,0.03,Wunderground v.1.15,2013-09-24 13:41:00,
2013-09-24 08:46:00,79.4,77.8,29.83,East,96,3.0,11.0,95,0.00,,,0.03,Wunderground v.1.15,2013-09-24 13:46:00,
2013-09-24 08:51:00,79.8,77.9,29.83,East,94,7.0,10.0,94,0.00,,,0.03,Wunderground v.1.15,2013-09-24 13:51:00,
2013-09-24 08:56:00,80.1,77.6,29.83,ESE,108,5.0,11.0,92,0.00,,,0.03,Wunderground v.1.15,2013-09-24 13:56:00,
2013-09-24 09:01:00,80.5,77.3,29.83,ESE,113,6.0,11.0,90,0.00,,,0.03,Wunderground v.1.15,2013-09-24 14:01:00,
2013-09-24 09:06:00,80.7,77.5,29.84,SE,125,7.0,11.0,90,0.00,,,0.03,Wunderground v.1.15,2013-09-24 14:06:00,
2013-09-24 09:11:00,80.8,76.9,29.83,SSE,158,4.0,9.0,88,0.00,,,0.03,Wunderground v.1.15,2013-09-24 14:11:00,
2013-09-24 09:16:00,80.9,77.7,29.83,ESE,120,6.0,11.0,90,0.00,,,0.03,Wunderground v.1.15,2013-09-24 14:16:00,
2013-09-24 09:21:00,80.7,76.8,29.84,ESE,122,7.0,9.0,88,0.00,,,0.03,Wunderground v.1.15,2013-09-24 14:21:00,
2013-09-24 09:26:00,80.6,77.1,29.84,East,98,11.0,11.0,89,0.00,,,0.03,Wunderground v.1.15,2013-09-24 14:26:00,
2013-09-24 09:31:00,81.3,78.4,29.84,ESE,110,4.0,6.0,91,0.00,,,0.03,Wunderground v.1.15,2013-09-24 14:31:00,
2013-09-24 09:36:00,81.8,78.9,29.83,SE,142,2.0,10.0,91,0.00,,,0.03,Wunderground v.1.15,2013-09-24 14:36:00,
2013-09-24 09:41:00,81.9,78.7,29.83,SE,129,5.0,6.0,90,0.00,,,0.03,Wunderground v.1.15,2013-09-24 14:41:00,
2013-09-24 09:46:00,81.9,78.3,29.83,East,94,9.0,12.0,89,0.00,,,0.03,Wunderground v.1.15,2013-09-24 14:46:00,
2013-09-24 09:51:00,81.9,79.0,29.84,ESE,108,6.0,9.0,91,0.00,,,0.03,Wunderground v.1.15,2013-09-24 14:51:00,
2013-09-24 09:56:00,81.2,78.0,29.84,ESE,105,7.0,12.0,90,0.00,,,0.03,Wunderground v.1.15,2013-09-24 14:56:00,
2013-09-24 10:01:00,80.9,78.0,29.84,ESE,103,8.0,10.0,91,0.00,,,0.03,Wunderground v.1.15,2013-09-24 15:01:00,
2013-09-24 10:06:00,81.2,78.0,29.84,East,96,13.0,13.0,90,0.00,,,0.03,Wunderground v.1.15,2013-09-24 15:06:00,
2013-09-24 10:11:00,81.7,79.1,29.84,ESE,109,7.0,9.0,92,0.00,,,0.03,Wunderground v.1.15,2013-09-24 15:11:00,
2013-09-24 10:16:00,81.2,77.6,29.85,ESE,120,11.0,13.0,89,0.00,,,0.03,Wunderground v.1.15,2013-09-24 15:16:00,
2013-09-24 10:21:00,80.6,77.7,29.85,SSE,148,5.0,12.0,91,0.00,,,0.03,Wunderground v.1.15,2013-09-24 15:21:00,
2013-09-24 10:26:00,80.2,77.7,29.85,ESE,117,8.0,13.0,92,0.00,,,0.03,Wunderground v.1.15,2013-09-24 15:26:00,
2013-09-24 10:31:00,80.1,77.9,29.85,East,101,5.0,9.0,93,0.00,,,0.03,Wunderground v.1.15,2013-09-24 15:31:00,
2013-09-24 10:36:00,80.2,77.7,29.85,SSE,148,2.0,11.0,92,0.00,,,0.03,Wunderground v.1.15,2013-09-24 15:36:00,
2013-09-24 10:41:00,80.7,78.5,29.85,SSE,155,4.0,6.0,93,0.00,,,0.04,Wunderground v.1.15,2013-09-24 15:41:00,
2013-09-24 10:46:00,80.9,79.0,29.85,ESE,117,5.0,7.0,94,0.00,,,0.04,Wunderground v.1.15,2013-09-24 15:46:00,
2013-09-24 10:51:00,81.0,79.1,29.85,SSW,207,4.0,7.0,94,0.00,,,0.04,Wunderground v.1.15,2013-09-24 15:51:00,
2013-09-24 10:56:00,81.4,79.5,29.84,SSE,156,3.0,7.0,94,0.00,,,0.04,Wunderground v.1.15,2013-09-24 15:56:00,
2013-09-24 11:01:00,81.8,79.2,29.84,SE,132,7.0,8.0,92,0.00,,,0.04,Wunderground v.1.15,2013-09-24 16:01:00,
2013-09-24 11:06:00,82.1,79.2,29.84,SE,125,3.0,8.0,91,0.00,,,0.04,Wunderground v.1.15,2013-09-24 16:06:00,
2013-09-24 11:11:00,82.3,79.1,29.84,South,174,8.0,9.0,90,0.00,,,0.04,Wunderground v.1.15,2013-09-24 16:11:00,
2013-09-24 11:16:00,82.1,78.9,29.84,SE,129,4.0,9.0,90,0.00,,,0.04,Wunderground v.1.15,2013-09-24 16:16:00,
2013-09-24 11:21:00,82.0,79.1,29.84,SSE,152,6.0,8.0,91,0.00,,,0.04,Wunderground v.1.15,2013-09-24 16:21:00,
2013-09-24 11:26:00,81.9,78.7,29.84,SE,141,6.0,8.0,90,0.00,,,0.04,Wunderground v.1.15,2013-09-24 16:26:00,
2013-09-24 11:31:00,81.7,78.1,29.84,SE,145,5.0,10.0,89,0.00,,,0.04,Wunderground v.1.15,2013-09-24 16:31:00,
2013-09-24 11:36:00,81.8,78.2,29.83,SE,129,3.0,11.0,89,0.00,,,0.04,Wunderground v.1.15,2013-09-24 16:36:00,
2013-09-24 11:41:00,81.6,78.4,29.82,SE,143,9.0,9.0,90,0.00,,,0.04,Wunderground v.1.15,2013-09-24 16:41:00,
2013-09-24 11:46:00,81.2,78.7,29.82,East,97,4.0,12.0,92,0.00,,,0.04,Wunderground v.1.15,2013-09-24 16:46:00,
2013-09-24 11:51:00,80.5,77.6,29.82,ESE,114,6.0,13.0,91,0.98,,,0.06,Wunderground v.1.15,2013-09-24 16:51:00,
2013-09-24 11:56:00,80.0,78.1,29.82,ESE,120,8.0,13.0,94,0.20,,,0.09,Wunderground v.1.15,2013-09-24 16:56:00,
2013-09-24 12:01:00,79.9,78.3,29.82,ESE,123,7.0,9.0,95,0.07,,,0.09,Wunderground v.1.15,2013-09-24 17:01:00,
2013-09-24 12:06:00,80.5,79.3,29.81,ESE,113,7.0,9.0,96,0.05,,,0.09,Wunderground v.1.15,2013-09-24 17:06:00,
2013-09-24 12:11:00,80.9,79.0,29.81,SE,131,4.0,8.0,94,0.00,,,0.09,Wunderground v.1.15,2013-09-24 17:11:00,
2013-09-24 12:16:00,81.6,79.4,29.81,SE,127,4.0,8.0,93,0.00,,,0.09,Wunderground v.1.15,2013-09-24 17:16:00,
2013-09-24 12:21:00,81.9,78.3,29.80,SE,141,5.0,6.0,89,0.00,,,0.09,Wunderground v.1.15,2013-09-24 17:21:00,
2013-09-24 12:27:00,82.1,78.9,29.80,SSE,148,5.0,7.0,90,0.00,,,0.09,Wunderground v.1.15,2013-09-24 17:27:00,
2013-09-24 12:32:00,82.2,78.3,29.80,SSE,148,6.0,6.0,88,0.00,,,0.09,Wunderground v.1.15,2013-09-24 17:32:00,
2013-09-24 12:37:00,81.8,78.2,29.81,SE,130,4.0,8.0,89,0.00,,,0.09,Wunderground v.1.15,2013-09-24 17:37:00,
2013-09-24 12:42:00,81.5,78.6,29.81,East,79,4.0,6.0,91,0.00,,,0.09,Wunderground v.1.15,2013-09-24 17:42:00,
2013-09-24 12:47:00,81.1,78.6,29.80,ESE,122,5.0,9.0,92,0.00,,,0.09,Wunderground v.1.15,2013-09-24 17:47:00,
2013-09-24 12:52:00,80.8,78.6,29.80,SE,131,2.0,8.0,93,0.00,,,0.09,Wunderground v.1.15,2013-09-24 17:52:00,
2013-09-24 12:57:00,80.7,78.5,29.80,ESE,120,5.0,8.0,93,0.00,,,0.09,Wunderground v.1.15,2013-09-24 17:57:00,
2013-09-24 13:02:00,80.8,78.6,29.79,ESE,110,3.0,10.0,93,0.00,,,0.09,Wunderground v.1.15,2013-09-24 18:02:00,
2013-09-24 13:07:00,80.9,78.7,29.79,SE,142,5.0,11.0,93,0.00,,,0.09,Wunderground v.1.15,2013-09-24 18:07:00,
2013-09-24 13:12:00,81.2,78.7,29.79,ESE,122,6.0,10.0,92,0.00,,,0.09,Wunderground v.1.15,2013-09-24 18:12:00,
2013-09-24 13:17:00,81.9,79.3,29.78,ESE,108,5.0,10.0,92,0.00,,,0.09,Wunderground v.1.15,2013-09-24 18:17:00,
2013-09-24 13:22:00,82.4,79.5,29.78,SE,132,4.0,11.0,91,0.00,,,0.09,Wunderground v.1.15,2013-09-24 18:22:00,
2013-09-24 13:27:00,82.4,79.5,29.77,ESE,110,7.0,11.0,91,0.00,,,0.09,Wunderground v.1.15,2013-09-24 18:27:00,
2013-09-24 13:32:00,82.6,79.7,29.77,SE,132,6.0,11.0,91,0.00,,,0.09,Wunderground v.1.15,2013-09-24 18:32:00,
2013-09-24 13:37:00,82.4,79.2,29.77,SE,136,4.0,11.0,90,0.00,,,0.09,Wunderground v.1.15,2013-09-24 18:37:00,
2013-09-24 13:42:00,82.0,79.1,29.77,East,94,4.0,10.0,91,0.00,,,0.09,Wunderground v.1.15,2013-09-24 18:42:00,
2013-09-24 13:47:00,81.7,79.1,29.77,ESE,113,8.0,10.0,92,0.00,,,0.09,Wunderground v.1.15,2013-09-24 18:47:00,
2013-09-24 13:52:00,81.6,79.0,29.76,East,96,3.0,7.0,92,0.00,,,0.09,Wunderground v.1.15,2013-09-24 18:52:00,
2013-09-24 13:57:00,81.9,79.0,29.77,ENE,67,4.0,9.0,91,0.00,,,0.09,Wunderground v.1.15,2013-09-24 18:57:00,
2013-09-24 14:02:00,82.1,79.5,29.76,SE,129,3.0,7.0,92,0.00,,,0.09,Wunderground v.1.15,2013-09-24 19:02:00,
2013-09-24 14:07:00,82.5,79.6,29.76,SE,129,6.0,9.0,91,0.00,,,0.09,Wunderground v.1.15,2013-09-24 19:07:00,
2013-09-24 14:12:00,83.0,79.8,29.75,ESE,120,5.0,8.0,90,0.00,,,0.09,Wunderground v.1.15,2013-09-24 19:12:00,
2013-09-24 14:17:00,83.3,79.7,29.76,SE,143,5.0,8.0,89,0.00,,,0.09,Wunderground v.1.15,2013-09-24 19:17:00,
2013-09-24 14:22:00,83.2,80.0,29.75,SSE,150,3.0,8.0,90,0.00,,,0.09,Wunderground v.1.15,2013-09-24 19:22:00,
2013-09-24 14:27:00,83.1,79.5,29.75,SE,145,8.0,10.0,89,0.00,,,0.09,Wunderground v.1.15,2013-09-24 19:27:00,
2013-09-24 14:32:00,83.6,80.0,29.74,SE,138,5.0,11.0,89,0.00,,,0.09,Wunderground v.1.15,2013-09-24 19:32:00,
2013-09-24 14:37:00,83.6,79.7,29.74,ESE,103,9.0,11.0,88,0.00,,,0.09,Wunderground v.1.15,2013-09-24 19:37:00,
2013-09-24 14:42:00,82.9,79.3,29.74,ESE,120,4.0,9.0,89,0.00,,,0.09,Wunderground v.1.15,2013-09-24 19:42:00,
2013-09-24 14:47:00,82.7,79.5,29.74,SSW,200,2.0,9.0,90,0.00,,,0.09,Wunderground v.1.15,2013-09-24 19:47:00,
2013-09-24 14:52:00,82.4,79.2,29.74,SE,125,5.0,7.0,90,0.00,,,0.09,Wunderground v.1.15,2013-09-24 19:52:00,
2013-09-24 14:57:00,82.3,79.4,29.75,SE,143,4.0,8.0,91,0.00,,,0.09,Wunderground v.1.15,2013-09-24 19:57:00,
2013-09-24 15:02:00,82.2,79.3,29.74,SE,141,5.0,11.0,91,0.00,,,0.09,Wunderground v.1.15,2013-09-24 20:02:00,
2013-09-24 15:07:00,82.0,79.4,29.74,SSE,148,7.0,11.0,92,0.00,,,0.09,Wunderground v.1.15,2013-09-24 20:07:00,
2013-09-24 15:12:00,81.6,79.4,29.75,SE,132,10.0,13.0,93,0.00,,,0.09,Wunderground v.1.15,2013-09-24 20:12:00,
2013-09-24 15:17:00,81.4,79.5,29.75,SSE,155,7.0,13.0,94,0.00,,,0.09,Wunderground v.1.15,2013-09-24 20:17:00,
2013-09-24 15:22:00,81.1,79.2,29.75,SSE,166,7.0,15.0,94,0.00,,,0.10,Wunderground v.1.15,2013-09-24 20:22:00,
2013-09-24 15:27:00,80.8,79.2,29.74,SSE,152,10.0,15.0,95,0.38,,,0.12,Wunderground v.1.15,2013-09-24 20:27:00,
2013-09-24 15:32:00,80.3,78.4,29.75,SSE,160,16.0,16.0,94,0.15,,,0.13,Wunderground v.1.15,2013-09-24 20:32:00,
2013-09-24 15:37:00,79.5,77.3,29.75,SE,129,13.0,16.0,93,0.46,,,0.17,Wunderground v.1.15,2013-09-24 20:37:00,
2013-09-24 15:42:00,78.7,75.8,29.75,SSE,148,4.0,14.0,91,0.53,,,0.21,Wunderground v.1.15,2013-09-24 20:42:00,
2013-09-24 15:47:00,78.0,75.5,29.76,WNW,294,3.0,14.0,92,2.10,,,0.39,Wunderground v.1.15,2013-09-24 20:47:00,
2013-09-24 15:52:00,77.4,75.5,29.76,ESE,122,0.0,5.0,94,1.31,,,0.48,Wunderground v.1.15,2013-09-24 20:52:00,
2013-09-24 15:57:00,77.2,75.7,29.76,SE,139,5.0,7.0,95,1.09,,,0.52,Wunderground v.1.15,2013-09-24 20:57:00,
2013-09-24 16:02:00,77.2,76.0,29.76,SE,138,1.0,2.0,96,0.12,,,0.53,Wunderground v.1.15,2013-09-24 21:02:00,
2013-09-24 16:07:00,77.4,76.2,29.76,SSE,158,1.0,3.0,96,0.06,,,0.53,Wunderground v.1.15,2013-09-24 21:07:00,
2013-09-24 16:12:00,77.7,76.8,29.76,SE,134,2.0,5.0,97,0.04,,,0.53,Wunderground v.1.15,2013-09-24 21:12:00,
2013-09-24 16:17:00,78.0,77.1,29.76,SE,135,4.0,8.0,97,0.00,,,0.53,Wunderground v.1.15,2013-09-24 21:17:00,
2013-09-24 16:22:00,78.6,77.7,29.75,SE,131,10.0,10.0,97,0.00,,,0.53,Wunderground v.1.15,2013-09-24 21:22:00,
2013-09-24 16:27:00,79.2,78.0,29.75,SSE,150,4.0,10.0,96,0.00,,,0.53,Wunderground v.1.15,2013-09-24 21:27:00,
2013-09-24 16:32:00,79.8,78.6,29.74,East,91,3.0,8.0,96,0.00,,,0.53,Wunderground v.1.15,2013-09-24 21:32:00,
2013-09-24 16:37:00,80.4,78.5,29.75,South,169,5.0,9.0,94,0.00,,,0.54,Wunderground v.1.15,2013-09-24 21:37:00,
2013-09-24 16:42:00,80.1,77.6,29.75,SE,131,3.0,9.0,92,0.00,,,0.54,Wunderground v.1.15,2013-09-24 21:42:00,
2013-09-24 16:47:00,80.4,77.5,29.74,South,179,3.0,9.0,91,0.00,,,0.54,Wunderground v.1.15,2013-09-24 21:47:00,
2013-09-24 16:52:00,80.8,76.9,29.74,SE,136,4.0,6.0,88,0.00,,,0.54,Wunderground v.1.15,2013-09-24 21:52:00,
2013-09-24 16:57:00,81.3,77.1,29.75,South,191,5.0,10.0,87,0.00,,,0.54,Wunderground v.1.15,2013-09-24 21:57:00,
2013-09-24 17:02:00,81.6,76.6,29.75,SE,134,5.0,10.0,85,0.00,,,0.54,Wunderground v.1.15,2013-09-24 22:02:00,
2013-09-24 17:07:00,81.7,77.1,29.76,SE,139,6.0,11.0,86,0.00,,,0.54,Wunderground v.1.15,2013-09-24 22:07:00,
2013-09-24 17:12:00,81.4,77.2,29.76,SE,141,3.0,7.0,87,0.00,,,0.54,Wunderground v.1.15,2013-09-24 22:12:00,
2013-09-24 17:17:00,80.9,76.7,29.75,SE,134,2.0,7.0,87,0.00,,,0.54,Wunderground v.1.15,2013-09-24 22:17:00,
2013-09-24 17:22:00,80.5,76.6,29.76,ESE,122,3.0,6.0,88,0.00,,,0.54,Wunderground v.1.15,2013-09-24 22:22:00,
2013-09-24 17:27:00,80.4,76.5,29.75,SSW,197,1.0,6.0,88,0.00,,,0.54,Wunderground v.1.15,2013-09-24 22:27:00,
2013-09-24 17:32:00,80.4,76.5,29.75,NNW,346,2.0,4.0,88,0.00,,,0.54,Wunderground v.1.15,2013-09-24 22:32:00,
2013-09-24 17:37:00,79.9,77.0,29.76,NNW,346,3.0,8.0,91,0.00,,,0.54,Wunderground v.1.15,2013-09-24 22:37:00,
2013-09-24 17:42:00,79.5,76.6,29.76,NNE,21,4.0,5.0,91,0.00,,,0.54,Wunderground v.1.15,2013-09-24 22:42:00,
2013-09-24 17:47:00,79.3,76.4,29.76,ENE,75,4.0,5.0,91,0.86,,,0.56,Wunderground v.1.15,2013-09-24 22:47:00,
2013-09-24 17:52:00,79.1,76.2,29.77,East,82,1.0,4.0,91,0.22,,,0.58,Wunderground v.1.15,2013-09-24 22:52:00,
2013-09-24 18:02:00,78.4,76.2,29.78,NW,316,1.0,2.0,93,0.05,,,0.58,Wunderground v.1.15,2013-09-24 23:02:00,
2013-09-24 18:07:00,78.1,76.2,29.78,WNW,296,2.0,5.0,94,0.00,,,0.58,Wunderground v.1.15,2013-09-24 23:07:00,
2013-09-24 18:12:00,78.0,76.1,29.77,West,274,2.0,3.0,94,0.92,,,0.61,Wunderground v.1.15,2013-09-24 23:12:00,
2013-09-24 18:17:00,78.3,76.4,29.76,NW,307,1.0,5.0,94,0.18,,,0.62,Wunderground v.1.15,2013-09-24 23:17:00,
2013-09-24 18:22:00,78.6,76.7,29.76,WNW,288,0.0,2.0,94,0.07,,,0.62,Wunderground v.1.15,2013-09-24 23:22:00,
2013-09-24 18:27:00,79.0,77.4,29.76,SSW,200,1.0,3.0,95,0.04,,,0.62,Wunderground v.1.15,2013-09-24 23:27:00,
2013-09-24 18:32:00,79.2,77.3,29.76,South,169,0.0,1.0,94,0.04,,,0.63,Wunderground v.1.15,2013-09-24 23:32:00,
2013-09-24 18:37:00,79.2,77.3,29.76,South,169,0.0,1.0,94,0.04,,,0.63,Wunderground v.1.15,2013-09-24 23:37:00,
2013-09-24 18:42:00,79.0,76.8,29.76,SSE,158,0.0,0.0,93,0.04,,,0.63,Wunderground v.1.15,2013-09-24 23:42:00,
2013-09-24 18:47:00,78.7,76.8,29.75,East,94,2.0,2.0,94,0.00,,,0.63,Wunderground v.1.15,2013-09-24 23:47:00,
2013-09-24 18:52:00,78.4,76.5,29.75,East,99,1.0,2.0,94,0.00,,,0.63,Wunderground v.1.15,2013-09-24 23:52:00,
2013-09-24 18:57:00,78.2,76.6,29.75,East,99,0.0,2.0,95,0.00,,,0.63,Wunderground v.1.15,2013-09-24 23:57:00,
2013-09-24 19:02:00,78.1,76.9,29.74,East,99,0.0,0.0,96,0.00,,,0.63,Wunderground v.1.15,2013-09-25 00:02:00,
2013-09-24 19:07:00,77.9,76.7,29.74,ENE,71,0.0,2.0,96,0.00,,,0.63,Wunderground v.1.15,2013-09-25 00:07:00,
2013-09-24 19:12:00,77.8,76.6,29.74,WNW,302,0.0,0.0,96,0.00,,,0.63,Wunderground v.1.15,2013-09-25 00:12:00,
2013-09-24 19:17:00,77.7,76.8,29.74,WNW,302,0.0,0.0,97,0.00,,,0.63,Wunderground v.1.15,2013-09-25 00:17:00,
2013-09-24 19:22:00,77.5,76.6,29.74,WNW,302,0.0,0.0,97,0.00,,,0.63,Wunderground v.1.15,2013-09-25 00:22:00,
2013-09-24 19:27:00,77.3,76.4,29.74,WNW,302,0.0,0.0,97,0.00,,,0.63,Wunderground v.1.15,2013-09-25 00:27:00,
2013-09-24 19:32:00,77.2,76.3,29.75,WNW,302,0.0,0.0,97,0.00,,,0.63,Wunderground v.1.15,2013-09-25 00:32:00,
2013-09-24 19:37:00,77.2,76.3,29.75,WNW,302,0.0,0.0,97,0.00,,,0.63,Wunderground v.1.15,2013-09-25 00:37:00,
2013-09-24 19:42:00,77.3,76.7,29.75,East,93,0.0,0.0,98,0.00,,,0.63,Wunderground v.1.15,2013-09-25 00:42:00,
2013-09-24 19:47:00,77.4,76.8,29.75,East,98,0.0,2.0,98,0.00,,,0.63,Wunderground v.1.15,2013-09-25 00:47:00,
2013-09-24 19:52:00,77.6,77.0,29.75,ESE,102,1.0,2.0,98,0.00,,,0.63,Wunderground v.1.15,2013-09-25 00:52:00,
2013-09-24 19:57:00,77.7,76.8,29.74,East,91,4.0,4.0,97,0.00,,,0.63,Wunderground v.1.15,2013-09-25 00:57:00,
2013-09-24 20:02:00,78.1,77.5,29.75,East,89,1.0,3.0,98,0.00,,,0.63,Wunderground v.1.15,2013-09-25 01:02:00,
2013-09-24 20:08:00,78.4,77.5,29.75,East,88,3.0,3.0,97,0.00,,,0.63,Wunderground v.1.15,2013-09-25 01:08:00,
2013-09-24 20:13:00,78.6,77.7,29.75,ESE,117,2.0,4.0,97,0.00,,,0.63,Wunderground v.1.15,2013-09-25 01:13:00,
2013-09-24 20:18:00,78.7,77.8,29.75,East,100,1.0,4.0,97,0.00,,,0.63,Wunderground v.1.15,2013-09-25 01:18:00,
2013-09-24 20:23:00,78.8,77.9,29.75,East,94,2.0,3.0,97,0.00,,,0.63,Wunderground v.1.15,2013-09-25 01:23:00,
2013-09-24 20:28:00,78.8,77.9,29.75,East,98,1.0,3.0,97,0.00,,,0.63,Wunderground v.1.15,2013-09-25 01:28:00,
2013-09-24 20:33:00,78.8,77.9,29.75,ESE,110,0.0,2.0,97,0.00,,,0.63,Wunderground v.1.15,2013-09-25 01:33:00,
2013-09-24 20:38:00,78.6,77.7,29.75,ESE,105,0.0,3.0,97,0.00,,,0.63,Wunderground v.1.15,2013-09-25 01:38:00,
2013-09-24 20:43:00,78.1,77.2,29.76,North,352,0.0,0.0,97,0.00,,,0.63,Wunderground v.1.15,2013-09-25 01:43:00,
2013-09-24 20:48:00,77.5,76.6,29.76,NNW,348,1.0,1.0,97,0.00,,,0.63,Wunderground v.1.15,2013-09-25 01:48:00,
2013-09-24 20:53:00,77.0,76.1,29.76,NNW,345,1.0,2.0,97,0.00,,,0.63,Wunderground v.1.15,2013-09-25 01:53:00,
2013-09-24 20:58:00,76.7,75.8,29.76,NW,323,0.0,2.0,97,0.00,,,0.63,Wunderground v.1.15,2013-09-25 01:58:00,
2013-09-24 21:03:00,76.6,76.0,29.76,NW,316,0.0,1.0,98,0.00,,,0.63,Wunderground v.1.15,2013-09-25 02:03:00,
2013-09-24 21:08:00,76.4,75.8,29.76,NW,316,0.0,1.0,98,0.00,,,0.63,Wunderground v.1.15,2013-09-25 02:08:00,
2013-09-24 21:13:00,76.4,75.8,29.76,NW,316,0.0,0.0,98,0.00,,,0.63,Wunderground v.1.15,2013-09-25 02:13:00,
2013-09-24 21:18:00,76.4,75.8,29.77,NW,316,0.0,0.0,98,0.00,,,0.63,Wunderground v.1.15,2013-09-25 02:18:00,
2013-09-24 21:23:00,76.3,76.0,29.77,NW,316,0.0,0.0,99,0.00,,,0.63,Wunderground v.1.15,2013-09-25 02:23:00,
2013-09-24 21:28:00,76.3,76.0,29.77,NW,325,3.0,3.0,99,0.00,,,0.63,Wunderground v.1.15,2013-09-25 02:28:00,
2013-09-24 21:33:00,76.4,76.1,29.77,NNW,342,0.0,2.0,99,0.00,,,0.63,Wunderground v.1.15,2013-09-25 02:33:00,
2013-09-24 21:38:00,76.3,76.0,29.77,NNW,342,0.0,2.0,99,0.00,,,0.63,Wunderground v.1.15,2013-09-25 02:38:00,
2013-09-24 21:43:00,76.2,75.9,29.77,North,349,0.0,2.0,99,0.00,,,0.63,Wunderground v.1.15,2013-09-25 02:43:00,
2013-09-24 21:48:00,76.2,75.9,29.77,NW,314,2.0,3.0,99,0.00,,,0.63,Wunderground v.1.15,2013-09-25 02:48:00,
2013-09-24 21:53:00,76.2,75.9,29.77,NNW,327,3.0,4.0,99,0.00,,,0.63,Wunderground v.1.15,2013-09-25 02:53:00,
2013-09-24 21:58:00,76.2,75.9,29.77,WNW,295,3.0,4.0,99,0.00,,,0.63,Wunderground v.1.15,2013-09-25 02:58:00,
2013-09-24 22:03:00,76.2,75.9,29.77,WNW,301,2.0,4.0,99,0.00,,,0.63,Wunderground v.1.15,2013-09-25 03:03:00,
2013-09-24 22:08:00,76.2,75.9,29.77,NNW,330,1.0,4.0,99,0.00,,,0.63,Wunderground v.1.15,2013-09-25 03:08:00,
2013-09-24 22:13:00,76.3,76.0,29.77,NW,318,2.0,3.0,99,0.00,,,0.63,Wunderground v.1.15,2013-09-25 03:13:00,
2013-09-24 22:18:00,76.4,76.4,29.77,WNW,302,2.0,3.0,100,0.00,,,0.63,Wunderground v.1.15,2013-09-25 03:18:00,
2013-09-24 22:23:00,76.4,76.4,29.77,NNW,336,2.0,4.0,100,0.00,,,0.63,Wunderground v.1.15,2013-09-25 03:23:00,
2013-09-24 22:28:00,76.4,76.4,29.77,NW,323,2.0,6.0,100,0.00,,,0.63,Wunderground v.1.15,2013-09-25 03:28:00,
2013-09-24 22:33:00,76.4,76.4,29.77,NW,306,2.0,5.0,100,0.00,,,0.63,Wunderground v.1.15,2013-09-25 03:33:00,
2013-09-24 22:38:00,76.4,76.4,29.78,NW,326,3.0,5.0,100,0.00,,,0.63,Wunderground v.1.15,2013-09-25 03:38:00,
2013-09-24 22:43:00,76.5,76.5,29.78,NNW,338,1.0,4.0,100,0.00,,,0.63,Wunderground v.1.15,2013-09-25 03:43:00,
2013-09-24 22:48:00,76.4,76.4,29.78,NW,320,2.0,4.0,100,0.00,,,0.63,Wunderground v.1.15,2013-09-25 03:48:00,
2013-09-24 22:53:00,76.3,76.3,29.78,NNW,338,6.0,6.0,100,0.00,,,0.63,Wunderground v.1.15,2013-09-25 03:53:00,
2013-09-24 22:58:00,76.1,76.1,29.77,NW,324,6.0,7.0,100,0.00,,,0.63,Wunderground v.1.15,2013-09-25 03:58:00,
2013-09-24 23:01:00,76.1,76.1,29.77,NNW,338,2.0,4.0,100,0.00,,,0.63,Wunderground v.1.15,2013-09-25 04:01:00,
2013-09-24 23:06:00,76.0,76.0,29.77,NNW,328,4.0,6.0,100,0.00,,,0.63,Wunderground v.1.15,2013-09-25 04:06:00,
2013-09-24 23:11:00,75.9,75.9,29.77,NNW,334,4.0,6.0,100,0.00,,,0.63,Wunderground v.1.15,2013-09-25 04:11:00,
2013-09-24 23:16:00,75.8,75.8,29.77,NW,319,3.0,7.0,100,0.00,,,0.63,Wunderground v.1.15,2013-09-25 04:16:00,
2013-09-24 23:21:00,75.7,75.7,29.77,NNW,342,5.0,6.0,100,0.00,,,0.63,Wunderground v.1.15,2013-09-25 04:21:00,
2013-09-24 23:26:00,75.6,75.6,29.77,NNW,330,3.0,6.0,100,0.00,,,0.63,Wunderground v.1.15,2013-09-25 04:26:00,
2013-09-24 23:31:00,75.6,75.6,29.77,NW,319,4.0,4.0,100,0.00,,,0.63,Wunderground v.1.15,2013-09-25 04:31:00,
2013-09-24 23:36:00,75.5,75.5,29.76,NNW,330,4.0,6.0,100,0.00,,,0.63,Wunderground v.1.15,2013-09-25 04:36:00,
2013-09-24 23:41:00,75.4,75.4,29.77,NNW,342,3.0,6.0,100,0.00,,,0.63,Wunderground v.1.15,2013-09-25 04:41:00,
2013-09-24 23:46:00,75.4,75.4,29.77,NW,311,2.0,6.0,100,0.00,,,0.63,Wunderground v.1.15,2013-09-25 04:46:00,
2013-09-24 23:51:00,75.3,75.3,29.77,NW,312,3.0,3.0,100,0.00,,,0.63,Wunderground v.1.15,2013-09-25 04:51:00,
2013-09-24 23:56:00,75.3,75.3,29.77,NNW,333,3.0,4.0,100,0.00,,,0.00,Wunderground v.1.15,2013-09-25 04:56:00,